logo
Rechercher aéroport 
image banner adimage banner adimage banner ad
image banner ad

CN39 - Operating Engineers Pension Trust Bldg

Situé à Los Angeles, United States

ICAO - CN39, IATA -

Données fournies par Airmate  

Information générale

Coordonnées: N34°3'43" W118°17'28"
Élévation : 441 feet MSL.
Variation magnétique : 14° East
Voir autres Aéroports à California

Données opérationnelles

Special qualification required
Heure actuelle UTC:
Heure actuelle locale:
Météo à : KSMO - Santa Monica Muni ( 16 km )
METAR: KSMO 281151Z AUTO 00000KT 10SM CLR 19/16 A2988 RMK AO2 SLP117 T01940161 10211 20194 55002
TAF: KSMO 281148Z 2812/2912 VRB03KT P6SM SKC FM281800 23009KT P6SM SKC FM290300 VRB03KT P6SM SKC FM290600 VRB03KT 6SM BR SCT004
Voir NOTAMs / SUP AIP / TFR affectant cet aéroport [VIEW]
Fréquences de communication: [VIEW]

Pistes:

Coordonnées de l'aéroport

Adresse: Los Angeles United States

Vue satellite de CN39